Project,Study,Ord_Occ,Event_Num,Date_Time_UTC,Date_Time_PST,Lat_Dec,Lon_Dec,Sta_ID,Line,Sta,Depth,Pressure,Temp0,Temp1,Salt0,CorrSalt0,Salt1,CorrSalt1,O2ml/L,AveCorrO2ml/L,StaCorrO2ml/L,FluorV,AveEstChl,StaEstChl,ISUSV,AveEstNO3,StaEstNO3,SigThetaTS0,SigThetaTS1,BAT,XMiss,SPAR,PAR,BTL_Depth,BTL_Temp,BTL_Salt,BTL_O2ml/L,BTL_Chl,BTL_Pha,BTL_NO3
CalCOFI,0701JD,056,557,26-Jan-2007 7:39:57 AM,25-Jan-2007 11:39:57 PM,32.57882,-122.81118,083.3 090.0,083.3,090.0,515.000,519.289,5.5612,5.5644,34.2050,34.2037,34.2020,34.2021,0.49481,0.57,0.65,0.0249,,,0.6726,9.25,8.863,26.9840,26.9812,0.3974,90.5419,4.0249e+00,9.9990e+03,,,,,,,
CalCOFI,0701JD,056,557,26-Jan-2007 7:40:01 AM,25-Jan-2007 11:40:01 PM,32.57882,-122.81118,083.3 090.0,083.3,090.0,514.000,518.280,5.5564,5.5582,34.2045,34.2032,34.2015,34.2016,0.49383,0.57,0.65,0.0247,,,0.0362,0.00,2.453,26.9842,26.9816,0.3976,90.5376,3.8497e+00,9.9990e+03,514,5.56 ,34.201,  .52,,,40.7
CalCOFI,0701JD,056,557,26-Jan-2007 7:40:35 AM,25-Jan-2007 11:40:35 PM,32.57882,-122.81118,083.3 090.0,083.3,090.0,513.000,517.270,5.5565,5.5574,34.2044,34.2031,34.2016,34.2017,0.48695,0.56,0.64,0.0246,,,0.0000,0.00,-99,26.9841,26.9817,0.3978,90.5330,4.2892e+00,9.9990e+03,,,,,,,
CalCOFI,0701JD,056,557,26-Jan-2007 7:40:36 AM,25-Jan-2007 11:40:36 PM,32.57882,-122.81118,083.3 090.0,083.3,090.0,512.000,516.261,5.6051,5.6114,34.2145,34.2132,34.2082,34.2083,0.48102,0.55,0.63,0.0249,,,0.0000,0.00,-99,26.9862,26.9805,0.3973,90.5444,4.1473e+00,9.9990e+03,,,,,,,
CalCOFI,0701JD,056,557,26-Jan-2007 7:40:37 AM,25-Jan-2007 11:40:37 PM,32.57882,-122.81118,083.3 090.0,083.3,090.0,511.000,515.251,5.6716,5.6734,34.2190,34.2177,34.2156,34.2157,0.47676,0.55,0.63,0.0245,,,0.0000,0.00,-99,26.9817,26.9788,0.3980,90.5280,4.2965e+00,9.9990e+03,,,,,,,
CalCOFI,0701JD,056,557,26-Jan-2007 7:40:38 AM,25-Jan-2007 11:40:38 PM,32.57882,-122.81118,083.3 090.0,083.3,090.0,510.000,514.241,5.6732,5.6738,34.2188,34.2175,34.2159,34.2160,0.47755,0.55,0.63,0.0245,,,0.0000,0.00,-99,26.9813,26.9790,0.3982,90.5228,4.5887e+00,9.9990e+03,,,,,,,
CalCOFI,0701JD,056,557,26-Jan-2007 7:40:39 AM,25-Jan-2007 11:40:39 PM,32.57882,-122.81118,083.3 090.0,083.3,090.0,509.000,513.232,5.6741,5.6748,34.2186,34.2173,34.2160,34.2161,0.48007,0.55,0.63,0.0246,,,0.0000,0.00,-99,26.9810,26.9789,0.3983,90.5215,4.5863e+00,9.9990e+03,,,,,,,
CalCOFI,0701JD,056,557,26-Jan-2007 7:40:40 AM,25-Jan-2007 11:40:40 PM,32.57882,-122.81118,083.3 090.0,083.3,090.0,508.000,512.222,5.6512,5.6500,34.2107,34.2094,34.2102,34.2103,0.48381,0.56,0.64,0.0247,,,0.0000,0.00,-99,26.9775,26.9773,0.3980,90.5283,4.4810e+00,9.9990e+03,,,,,,,
CalCOFI,0701JD,056,557,26-Jan-2007 7:40:40 AM,25-Jan-2007 11:40:40 PM,32.57882,-122.81118,083.3 090.0,083.3,090.0,507.000,511.213,5.6277,5.6288,34.2064,34.2051,34.2046,34.2047,0.48959,0.56,0.64,0.0247,,,0.0000,0.00,-99,26.9770,26.9754,0.3980,90.5284,4.2718e+00,9.9990e+03,,,,,,,
CalCOFI,0701JD,056,557,26-Jan-2007 7:40:41 AM,25-Jan-2007 11:40:41 PM,32.57882,-122.81118,083.3 090.0,083.3,090.0,506.000,510.203,5.6092,5.6103,34.2013,34.2000,34.1996,34.1997,0.49262,0.57,0.65,0.0243,,,0.0000,0.00,-99,26.9752,26.9737,0.3978,90.5337,4.2961e+00,9.9990e+03,,,,,,,
CalCOFI,0701JD,056,557,26-Jan-2007 7:40:42 AM,25-Jan-2007 11:40:42 PM,32.57882,-122.81118,083.3 090.0,083.3,090.0,505.000,509.194,5.6063,5.6070,34.2007,34.1994,34.1978,34.1979,0.49553,0.57,0.65,0.0240,,,0.0000,0.00,-99,26.9751,26.9727,0.3972,90.5489,4.1304e+00,9.9990e+03,,,,,,,
CalCOFI,0701JD,056,557,26-Jan-2007 7:40:44 AM,25-Jan-2007 11:40:44 PM,32.57882,-122.81118,083.3 090.0,083.3,090.0,504.000,508.184,5.6246,5.6240,34.2069,34.2056,34.2016,34.2017,0.49083,0.56,0.65,0.0244,,,0.0000,0.00,-99,26.9777,26.9736,0.3976,90.5388,4.2586e+00,9.9990e+03,,,,,,,
CalCOFI,0701JD,056,557,26-Jan-2007 7:40:46 AM,25-Jan-2007 11:40:46 PM,32.57882,-122.81118,083.3 090.0,083.3,090.0,503.000,507.175,5.6422,5.6413,34.2088,34.2075,34.2053,34.2054,0.49398,0.57,0.65,0.0248,,,0.0000,0.00,-99,26.9771,26.9744,0.3978,90.5323,4.2837e+00,9.9990e+03,,,,,,,
CalCOFI,0701JD,056,557,26-Jan-2007 7:40:48 AM,25-Jan-2007 11:40:48 PM,32.57882,-122.81118,083.3 090.0,083.3,090.0,502.000,506.165,5.6161,5.6172,34.2012,34.1999,34.1987,34.1988,0.50371,0.58,0.66,0.0246,,,0.0000,0.00,-99,26.9742,26.9721,0.3973,90.5447,4.3797e+00,9.9990e+03,,,,,,,
CalCOFI,0701JD,056,557,26-Jan-2007 7:40:48 AM,25-Jan-2007 11:40:48 PM,32.57882,-122.81118,083.3 090.0,083.3,090.0,501.000,505.155,5.6249,5.6261,34.1979,34.1966,34.1953,34.1954,0.51063,0.59,0.67,0.0248,,,0.0000,0.00,-99,26.9705,26.9683,0.3973,90.5452,4.2400e+00,9.9990e+03,,,,,,,
CalCOFI,0701JD,056,557,26-Jan-2007 7:40:49 AM,25-Jan-2007 11:40:49 PM,32.57882,-122.81118,083.3 090.0,083.3,090.0,500.000,504.146,5.6152,5.6157,34.1919,34.1906,34.1902,34.1903,0.51727,0.60,0.68,0.0244,,,0.0000,0.00,-99,26.9670,26.9655,0.3978,90.5333,4.3197e+00,9.9990e+03,,,,,,,
CalCOFI,0701JD,056,557,26-Jan-2007 7:40:50 AM,25-Jan-2007 11:40:50 PM,32.57882,-122.81118,083.3 090.0,083.3,090.0,499.000,503.137,5.6069,5.6074,34.1879,34.1866,34.1857,34.1858,0.52396,0.60,0.69,-9.990e-29,,,0.0000,0.00,-99,26.9648,26.9630,0.3980,90.5292,3.5779e+00,9.9990e+03,,,,,,,
CalCOFI,0701JD,056,557,26-Jan-2007 7:40:50 AM,25-Jan-2007 11:40:50 PM,32.57882,-122.81118,083.3 090.0,083.3,090.0,498.000,502.127,5.6145,5.6175,34.1893,34.1880,34.1844,34.1845,0.52856,0.61,0.69,-9.990e-29,,,0.0000,0.00,-99,26.9649,26.9608,0.3973,90.5463,4.8522e+00,9.9990e+03,,,,,,,
CalCOFI,0701JD,056,557,26-Jan-2007 7:40:51 AM,25-Jan-2007 11:40:51 PM,32.57882,-122.81118,083.3 090.0,083.3,090.0,497.000,501.117,5.6425,5.6431,34.1865,34.1852,34.1842,34.1843,0.53160,0.61,0.70,-9.990e-29,,,0.0000,0.00,-99,26.9593,26.9575,0.3973,90.5447,4.0030e+00,9.9990e+03,,,,,,,
CalCOFI,0701JD,056,557,26-Jan-2007 7:40:51 AM,25-Jan-2007 11:40:51 PM,32.57882,-122.81118,083.3 090.0,083.3,090.0,496.000,500.108,5.6305,5.6313,34.1831,34.1818,34.1808,34.1809,0.53683,0.62,0.70,-9.990e-29,,,0.0000,0.00,-99,26.9581,26.9562,0.3978,90.5340,3.9679e+00,9.9990e+03,,,,,,,
CalCOFI,0701JD,056,557,26-Jan-2007 7:40:52 AM,25-Jan-2007 11:40:52 PM,32.57882,-122.81118,083.3 090.0,083.3,090.0,495.000,499.099,5.6330,5.6337,34.1840,34.1827,34.1811,34.1812,0.53944,0.62,0.71,-9.990e-29,,,0.0000,0.00,-99,26.9585,26.9561,0.3979,90.5301,4.0635e+00,9.9990e+03,,,,,,,
CalCOFI,0701JD,056,557,26-Jan-2007 7:40:53 AM,25-Jan-2007 11:40:53 PM,32.57882,-122.81118,083.3 090.0,083.3,090.0,494.000,498.089,5.6435,5.6446,34.1855,34.1842,34.1820,34.1821,0.54136,0.63,0.71,0.0249,,,0.0000,0.00,-99,26.9584,26.9555,0.3978,90.5342,4.0897e+00,9.9990e+03,,,,,,,
CalCOFI,0701JD,056,557,26-Jan-2007 7:40:54 AM,25-Jan-2007 11:40:54 PM,32.57882,-122.81118,083.3 090.0,083.3,090.0,493.000,497.079,5.6836,5.6851,34.1902,34.1889,34.1856,34.1857,0.54235,0.63,0.71,0.0244,,,0.0000,0.00,-99,26.9572,26.9534,0.3974,90.5438,4.3291e+00,9.9990e+03,,,,,,,
CalCOFI,0701JD,056,557,26-Jan-2007 7:40:56 AM,25-Jan-2007 11:40:56 PM,32.57882,-122.81118,083.3 090.0,083.3,090.0,492.000,496.070,5.6993,5.6727,34.1892,34.1879,34.1878,34.1879,0.54294,0.63,0.71,0.0245,,,0.0000,0.00,-99,26.9545,26.9566,0.3977,90.5354,4.1575e+00,9.9990e+03,,,,,,,
CalCOFI,0701JD,056,557,26-Jan-2007 7:40:58 AM,25-Jan-2007 11:40:58 PM,32.57882,-122.81118,083.3 090.0,083.3,090.0,491.000,495.061,5.6779,5.6894,34.1899,34.1886,34.1871,34.1872,0.54202,0.63,0.71,0.0249,,,0.0000,0.00,-99,26.9577,26.9541,0.3975,90.5403,4.0664e+00,9.9990e+03,,,,,,,
CalCOFI,0701JD,056,557,26-Jan-2007 7:40:59 AM,25-Jan-2007 11:40:59 PM,32.57882,-122.81118,083.3 090.0,083.3,090.0,490.000,494.051,5.7333,5.7482,34.1957,34.1944,34.1915,34.1916,0.54062,0.62,0.71,0.0245,,,0.0000,0.00,-99,26.9555,26.9503,0.3980,90.5277,4.0215e+00,9.9990e+03,,,,,,,
CalCOFI,0701JD,056,557,26-Jan-2007 7:41:00 AM,25-Jan-2007 11:41:00 PM,32.57882,-122.81118,083.3 090.0,083.3,090.0,489.000,493.042,5.7732,5.7746,34.1964,34.1951,34.1937,34.1938,0.53838,0.62,0.70,0.0248,,,0.0000,0.00,-99,26.9512,26.9489,0.3972,90.5480,4.5528e+00,9.9990e+03,,,,,,,
CalCOFI,0701JD,056,557,26-Jan-2007 7:41:01 AM,25-Jan-2007 11:41:01 PM,32.57882,-122.81118,083.3 090.0,083.3,090.0,488.000,492.032,5.7800,5.7809,34.1969,34.1956,34.1945,34.1946,0.53936,0.62,0.71,0.0248,,,0.0000,0.00,-99,26.9507,26.9487,0.3974,90.5422,4.2976e+00,9.9990e+03,,,,,,,
CalCOFI,0701JD,056,557,26-Jan-2007 7:41:02 AM,25-Jan-2007 11:41:02 PM,32.57882,-122.81118,083.3 090.0,083.3,090.0,487.000,491.023,5.7800,5.7808,34.1962,34.1949,34.1937,34.1938,0.54060,0.62,0.71,-9.990e-29,,,0.0000,0.00,-99,26.9501,26.9481,0.3980,90.5286,4.2237e+00,9.9990e+03,,,,,,,
CalCOFI,0701JD,056,557,26-Jan-2007 7:41:03 AM,25-Jan-2007 11:41:03 PM,32.57882,-122.81118,083.3 090.0,083.3,090.0,486.000,490.013,5.7879,5.7895,34.1960,34.1947,34.1933,34.1934,0.54218,0.63,0.71,-9.990e-29,,,0.0000,0.00,-99,26.9490,26.9466,0.3975,90.5406,4.5335e+00,9.9990e+03,,,,,,,
CalCOFI,0701JD,056,557,26-Jan-2007 7:41:04 AM,25-Jan-2007 11:41:04 PM,32.57882,-122.81118,083.3 090.0,083.3,090.0,485.000,489.004,5.7949,5.7962,34.1953,34.1940,34.1926,34.1927,0.54607,0.63,0.71,-9.990e-29,,,0.0000,0.00,-99,26.9476,26.9453,0.3974,90.5418,4.5076e+00,9.9990e+03,,,,,,,
CalCOFI,0701JD,056,557,26-Jan-2007 7:41:05 AM,25-Jan-2007 11:41:05 PM,32.57882,-122.81118,083.3 090.0,083.3,090.0,484.000,487.994,5.8039,5.8045,34.1932,34.1919,34.1910,34.1911,0.54868,0.63,0.72,-9.990e-29,,,0.0000,0.00,-99,26.9448,26.9430,0.3978,90.5330,4.1256e+00,9.9990e+03,,,,,,,
CalCOFI,0701JD,056,557,26-Jan-2007 7:41:05 AM,25-Jan-2007 11:41:05 PM,32.57882,-122.81118,083.3 090.0,083.3,090.0,483.000,486.985,5.7942,5.7943,34.1897,34.1884,34.1876,34.1877,0.55177,0.64,0.72,-9.990e-29,,,0.0000,0.00,-99,26.9432,26.9416,0.3977,90.5348,4.0409e+00,9.9990e+03,,,,,,,
CalCOFI,0701JD,056,557,26-Jan-2007 7:41:06 AM,25-Jan-2007 11:41:06 PM,32.57882,-122.81118,083.3 090.0,083.3,090.0,482.000,485.976,5.7917,5.7929,34.1892,34.1879,34.1871,34.1872,0.55248,0.64,0.72,-9.990e-29,,,0.0000,0.00,-99,26.9431,26.9413,0.3976,90.5373,4.1778e+00,9.9990e+03,,,,,,,
CalCOFI,0701JD,056,557,26-Jan-2007 7:41:07 AM,25-Jan-2007 11:41:07 PM,32.57882,-122.81118,083.3 090.0,083.3,090.0,481.000,484.966,5.8010,5.8026,34.1909,34.1896,34.1880,34.1881,0.55102,0.64,0.72,-9.990e-29,,,0.0000,0.00,-99,26.9433,26.9408,0.3979,90.5314,4.5203e+00,9.9990e+03,,,,,,,
CalCOFI,0701JD,056,557,26-Jan-2007 7:41:08 AM,25-Jan-2007 11:41:08 PM,32.57882,-122.81118,083.3 090.0,083.3,090.0,480.000,483.957,5.8231,5.8313,34.1954,34.1941,34.1917,34.1918,0.55008,0.64,0.72,-9.990e-29,,,0.0000,0.00,-99,26.9441,26.9402,0.3979,90.5303,4.3003e+00,9.9990e+03,,,,,,,
CalCOFI,0701JD,056,557,26-Jan-2007 7:41:09 AM,25-Jan-2007 11:41:09 PM,32.57882,-122.81118,083.3 090.0,083.3,090.0,479.000,482.947,5.8742,5.8767,34.1991,34.1978,34.1958,34.1959,0.54882,0.63,0.72,0.0239,,,0.0000,0.00,-99,26.9407,26.9378,0.3976,90.5380,4.0513e+00,9.9990e+03,,,,,,,
CalCOFI,0701JD,056,557,26-Jan-2007 7:41:10 AM,25-Jan-2007 11:41:10 PM,32.57882,-122.81118,083.3 090.0,083.3,090.0,478.000,481.938,5.8785,5.8791,34.1982,34.1969,34.1960,34.1961,0.55272,0.64,0.72,0.0246,,,0.0000,0.00,-99,26.9395,26.9377,0.3978,90.5330,4.5178e+00,9.9990e+03,,,,,,,
CalCOFI,0701JD,056,557,26-Jan-2007 7:41:12 AM,25-Jan-2007 11:41:12 PM,32.57882,-122.81118,083.3 090.0,083.3,090.0,477.000,480.928,5.8558,5.8523,34.1913,34.1900,34.1899,34.1900,0.56852,0.66,0.74,0.0246,,,0.0000,0.00,-99,26.9368,26.9362,0.3976,90.5377,4.4056e+00,9.9990e+03,,,,,,,
CalCOFI,0701JD,056,557,26-Jan-2007 7:41:13 AM,25-Jan-2007 11:41:13 PM,32.57882,-122.81118,083.3 090.0,083.3,090.0,476.000,479.919,5.7862,5.7869,34.1752,34.1739,34.1740,34.1741,0.58813,0.68,0.76,0.0245,,,0.0000,0.00,-99,26.9327,26.9316,0.3986,90.5143,4.0136e+00,9.9990e+03,,,,,,,
CalCOFI,0701JD,056,557,26-Jan-2007 7:41:13 AM,25-Jan-2007 11:41:13 PM,32.57882,-122.81118,083.3 090.0,083.3,090.0,475.000,478.910,5.7716,5.7717,34.1694,34.1681,34.1691,34.1692,0.60656,0.71,0.79,0.0249,,,0.0000,0.00,-99,26.9299,26.9296,0.3977,90.5346,4.3426e+00,9.9990e+03,,,,,,,
CalCOFI,0701JD,056,557,26-Jan-2007 7:41:14 AM,25-Jan-2007 11:41:14 PM,32.57882,-122.81118,083.3 090.0,083.3,090.0,474.000,477.900,5.7093,5.7070,34.1537,34.1524,34.1526,34.1527,0.62251,0.72,0.81,0.0244,,,0.0000,0.00,-99,26.9250,26.9245,0.3975,90.5397,3.9375e+00,9.9990e+03,,,,,,,
CalCOFI,0701JD,056,557,26-Jan-2007 7:41:15 AM,25-Jan-2007 11:41:15 PM,32.57882,-122.81118,083.3 090.0,083.3,090.0,473.000,476.891,5.6964,5.6973,34.1504,34.1491,34.1485,34.1486,0.63705,0.74,0.82,0.0241,,,0.0000,0.00,-99,26.9239,26.9224,0.3972,90.5470,4.3326e+00,9.9990e+03,,,,,,,
CalCOFI,0701JD,056,557,26-Jan-2007 7:41:16 AM,25-Jan-2007 11:41:16 PM,32.57882,-122.81118,083.3 090.0,083.3,090.0,472.000,475.881,5.6944,5.6949,34.1498,34.1485,34.1476,34.1477,0.64933,0.76,0.84,0.0241,,,0.0000,0.00,-99,26.9237,26.9219,0.3976,90.5369,4.2128e+00,9.9990e+03,,,,,,,
CalCOFI,0701JD,056,557,26-Jan-2007 7:41:18 AM,25-Jan-2007 11:41:18 PM,32.57882,-122.81118,083.3 090.0,083.3,090.0,471.000,474.872,5.6933,5.6940,34.1496,34.1483,34.1473,34.1474,0.66318,0.77,0.86,0.0242,,,0.0000,0.00,-99,26.9237,26.9218,0.3976,90.5385,4.5753e+00,9.9990e+03,,,,,,,
CalCOFI,0701JD,056,557,26-Jan-2007 7:41:19 AM,25-Jan-2007 11:41:19 PM,32.57882,-122.81118,083.3 090.0,083.3,090.0,470.000,473.863,5.6880,5.6891,34.1484,34.1471,34.1465,34.1466,0.67383,0.79,0.87,0.0241,,,0.0000,0.00,-99,26.9233,26.9218,0.3972,90.5474,4.0732e+00,9.9990e+03,,,,,,,
CalCOFI,0701JD,056,557,26-Jan-2007 7:41:20 AM,25-Jan-2007 11:41:20 PM,32.57882,-122.81118,083.3 090.0,083.3,090.0,469.000,472.853,5.6832,5.6842,34.1451,34.1438,34.1428,34.1429,0.68185,0.80,0.88,0.0248,,,0.0000,0.00,-99,26.9214,26.9194,0.3976,90.5380,4.4143e+00,9.9990e+03,,,,,,,
CalCOFI,0701JD,056,557,26-Jan-2007 7:41:20 AM,25-Jan-2007 11:41:20 PM,32.57882,-122.81118,083.3 090.0,083.3,090.0,468.000,471.844,5.6971,5.6987,34.1458,34.1445,34.1427,34.1428,0.68926,0.81,0.89,0.0241,,,0.0000,0.00,-99,26.9202,26.9176,0.3978,90.5334,4.3447e+00,9.9990e+03,,,,,,,
CalCOFI,0701JD,056,557,26-Jan-2007 7:41:21 AM,25-Jan-2007 11:41:21 PM,32.57882,-122.81118,083.3 090.0,083.3,090.0,467.000,470.835,5.7169,5.7184,34.1460,34.1447,34.1430,34.1431,0.69645,0.81,0.90,0.0247,,,0.0000,0.00,-99,26.9180,26.9153,0.3973,90.5454,4.3198e+00,9.9990e+03,,,,,,,
CalCOFI,0701JD,056,557,26-Jan-2007 7:41:22 AM,25-Jan-2007 11:41:22 PM,32.57882,-122.81118,083.3 090.0,083.3,090.0,466.000,469.825,5.7249,5.7253,34.1448,34.1435,34.1425,34.1426,0.70235,0.82,0.90,-9.990e-29,,,0.0000,0.00,-99,26.9160,26.9141,0.3974,90.5430,4.2250e+00,9.9990e+03,,,,,,,
CalCOFI,0701JD,056,557,26-Jan-2007 7:41:23 AM,25-Jan-2007 11:41:23 PM,32.57882,-122.81118,083.3 090.0,083.3,090.0,465.000,468.816,5.7188,5.7196,34.1428,34.1415,34.1406,34.1407,0.71031,0.83,0.91,-9.990e-29,,,0.0000,0.00,-99,26.9151,26.9133,0.3977,90.5351,4.2959e+00,9.9990e+03,,,,,,,
CalCOFI,0701JD,056,557,26-Jan-2007 7:41:24 AM,25-Jan-2007 11:41:24 PM,32.57882,-122.81118,083.3 090.0,083.3,090.0,464.000,467.807,5.7201,5.7208,34.1416,34.1403,34.1392,34.1393,0.72257,0.85,0.93,-9.990e-29,,,0.0000,0.00,-99,26.9140,26.9121,0.3976,90.5389,3.9947e+00,9.9990e+03,,,,,,,
CalCOFI,0701JD,056,557,26-Jan-2007 7:41:25 AM,25-Jan-2007 11:41:25 PM,32.57882,-122.81118,083.3 090.0,083.3,090.0,463.000,466.797,5.7131,5.7147,34.1355,34.1342,34.1332,34.1333,0.73530,0.86,0.94,-9.990e-29,,,0.0000,0.00,-99,26.9100,26.9080,0.3972,90.5472,4.2728e+00,9.9990e+03,,,,,,,
CalCOFI,0701JD,056,557,26-Jan-2007 7:41:26 AM,25-Jan-2007 11:41:26 PM,32.57882,-122.81118,083.3 090.0,083.3,090.0,462.000,465.788,5.7348,5.7331,34.1354,34.1341,34.1319,34.1320,0.74499,0.87,0.95,-9.990e-29,,,0.0000,0.00,-99,26.9073,26.9047,0.3977,90.5357,3.9679e+00,9.9990e+03,,,,,,,
CalCOFI,0701JD,056,557,26-Jan-2007 7:41:27 AM,25-Jan-2007 11:41:27 PM,32.57882,-122.81118,083.3 090.0,083.3,090.0,461.000,464.779,5.7574,5.7578,34.1359,34.1346,34.1330,34.1331,0.74877,0.88,0.96,-9.990e-29,,,0.0000,0.00,-99,26.9049,26.9026,0.3975,90.5405,4.1479e+00,9.9990e+03,,,,,,,
CalCOFI,0701JD,056,557,26-Jan-2007 7:41:28 AM,25-Jan-2007 11:41:28 PM,32.57882,-122.81118,083.3 090.0,083.3,090.0,460.000,463.769,5.7747,5.7721,34.1383,34.1370,34.1347,34.1348,0.75012,0.88,0.96,-9.990e-29,,,0.0000,0.00,-99,26.9047,26.9021,0.3973,90.5459,3.9262e+00,9.9990e+03,,,,,,,
CalCOFI,0701JD,056,557,26-Jan-2007 7:41:29 AM,25-Jan-2007 11:41:29 PM,32.57882,-122.81118,083.3 090.0,083.3,090.0,459.000,462.760,5.8046,5.8058,34.1414,34.1401,34.1382,34.1383,0.74949,0.88,0.96,0.0241,,,0.0000,0.00,-99,26.9035,26.9008,0.3976,90.5369,4.1009e+00,9.9990e+03,,,,,,,
CalCOFI,0701JD,056,557,26-Jan-2007 7:41:30 AM,25-Jan-2007 11:41:30 PM,32.57882,-122.81118,083.3 090.0,083.3,090.0,458.000,461.751,5.8136,5.8146,34.1419,34.1406,34.1395,34.1396,0.74944,0.88,0.96,0.0241,,,0.0000,0.00,-99,26.9028,26.9007,0.3977,90.5364,4.5001e+00,9.9990e+03,,,,,,,
CalCOFI,0701JD,056,557,26-Jan-2007 7:41:31 AM,25-Jan-2007 11:41:31 PM,32.57882,-122.81118,083.3 090.0,083.3,090.0,457.000,460.741,5.8232,5.8241,34.1433,34.1420,34.1408,34.1409,0.74935,0.88,0.96,0.0239,,,0.0000,0.00,-99,26.9027,26.9006,0.3975,90.5414,4.0008e+00,9.9990e+03,,,,,,,
CalCOFI,0701JD,056,557,26-Jan-2007 7:41:32 AM,25-Jan-2007 11:41:32 PM,32.57882,-122.81118,083.3 090.0,083.3,090.0,456.000,459.732,5.8496,5.8531,34.1466,34.1453,34.1428,34.1429,0.74996,0.88,0.96,0.0243,,,0.0000,0.00,-99,26.9020,26.8986,0.3980,90.5286,4.4515e+00,9.9990e+03,,,,,,,
CalCOFI,0701JD,056,557,26-Jan-2007 7:41:33 AM,25-Jan-2007 11:41:33 PM,32.57882,-122.81118,083.3 090.0,083.3,090.0,455.000,458.723,5.8794,5.8805,34.1467,34.1454,34.1442,34.1443,0.75347,0.88,0.96,0.0248,,,0.0000,0.00,-99,26.8984,26.8963,0.3981,90.5266,4.0807e+00,9.9990e+03,,,,,,,
CalCOFI,0701JD,056,557,26-Jan-2007 7:41:34 AM,25-Jan-2007 11:41:34 PM,32.57882,-122.81118,083.3 090.0,083.3,090.0,454.000,457.713,5.8796,5.8803,34.1439,34.1426,34.1419,34.1420,0.75776,0.89,0.97,-9.990e-29,,,0.0000,0.00,-99,26.8961,26.8944,0.3975,90.5396,4.2062e+00,9.9990e+03,,,,,,,
CalCOFI,0701JD,056,557,26-Jan-2007 7:41:36 AM,25-Jan-2007 11:41:36 PM,32.57882,-122.81118,083.3 090.0,083.3,090.0,453.000,456.704,5.8838,5.8853,34.1418,34.1405,34.1391,34.1392,0.76345,0.90,0.98,-9.990e-29,,,0.0000,0.00,-99,26.8939,26.8917,0.3982,90.5242,4.1604e+00,9.9990e+03,,,,,,,
CalCOFI,0701JD,056,557,26-Jan-2007 7:41:37 AM,25-Jan-2007 11:41:37 PM,32.57882,-122.81118,083.3 090.0,083.3,090.0,452.000,455.695,5.9015,5.9026,34.1424,34.1411,34.1398,34.1399,0.77129,0.91,0.99,0.0250,,,0.0000,0.00,-99,26.8922,26.8900,0.3979,90.5306,4.8437e+00,9.9990e+03,,,,,,,
CalCOFI,0701JD,056,557,26-Jan-2007 7:41:38 AM,25-Jan-2007 11:41:38 PM,32.57882,-122.81118,083.3 090.0,083.3,090.0,451.000,454.686,5.9057,5.9079,34.1377,34.1364,34.1368,34.1369,0.77856,0.91,0.99,0.0243,,,0.0000,0.00,-99,26.8880,26.8869,0.3973,90.5454,4.1335e+00,9.9990e+03,,,,,,,
CalCOFI,0701JD,056,557,26-Jan-2007 7:41:38 AM,25-Jan-2007 11:41:38 PM,32.57882,-122.81118,083.3 090.0,083.3,090.0,450.000,453.676,5.8979,5.8985,34.1345,34.1332,34.1330,34.1331,0.78433,0.92,1.00,0.0245,,,0.0000,0.00,-99,26.8864,26.8851,0.3978,90.5328,4.6358e+00,9.9990e+03,,,,,,,
CalCOFI,0701JD,056,557,26-Jan-2007 7:41:39 AM,25-Jan-2007 11:41:39 PM,32.57882,-122.81118,083.3 090.0,083.3,090.0,449.000,452.667,5.8961,5.8968,34.1338,34.1325,34.1321,34.1322,0.78774,0.93,1.01,0.0245,,,0.0000,0.00,-99,26.8860,26.8846,0.3977,90.5343,4.6303e+00,9.9990e+03,,,,,,,
CalCOFI,0701JD,056,557,26-Jan-2007 7:41:40 AM,25-Jan-2007 11:41:40 PM,32.57882,-122.81118,083.3 090.0,083.3,090.0,448.000,451.658,5.8972,5.8978,34.1340,34.1327,34.1317,34.1318,0.78883,0.93,1.01,0.0243,,,0.0000,0.00,-99,26.8861,26.8841,0.3981,90.5258,4.2756e+00,9.9990e+03,,,,,,,
CalCOFI,0701JD,056,557,26-Jan-2007 7:41:41 AM,25-Jan-2007 11:41:41 PM,32.57882,-122.81118,083.3 090.0,083.3,090.0,447.000,450.648,5.9103,5.9122,34.1355,34.1342,34.1329,34.1330,0.79182,0.93,1.01,0.0244,,,0.0000,0.00,-99,26.8856,26.8833,0.3977,90.5365,4.5291e+00,9.9990e+03,,,,,,,
CalCOFI,0701JD,056,557,26-Jan-2007 7:41:42 AM,25-Jan-2007 11:41:42 PM,32.57882,-122.81118,083.3 090.0,083.3,090.0,446.000,449.639,5.9211,5.9225,34.1360,34.1347,34.1339,34.1340,0.79407,0.93,1.01,-9.990e-29,,,0.0000,0.00,-99,26.8847,26.8828,0.3979,90.5307,4.0466e+00,9.9990e+03,,,,,,,
CalCOFI,0701JD,056,557,26-Jan-2007 7:41:43 AM,25-Jan-2007 11:41:43 PM,32.57882,-122.81118,083.3 090.0,083.3,090.0,445.000,448.630,5.9250,5.9258,34.1363,34.1350,34.1343,34.1344,0.79526,0.94,1.02,-9.990e-29,,,0.0000,0.00,-99,26.8844,26.8827,0.3979,90.5300,4.2922e+00,9.9990e+03,,,,,,,
CalCOFI,0701JD,056,557,26-Jan-2007 7:41:44 AM,25-Jan-2007 11:41:44 PM,32.57882,-122.81118,083.3 090.0,083.3,090.0,444.000,447.621,5.9294,5.9301,34.1367,34.1354,34.1346,34.1347,0.79230,0.93,1.01,-9.990e-29,,,0.0000,0.00,-99,26.8841,26.8824,0.3972,90.5473,4.4381e+00,9.9990e+03,,,,,,,
CalCOFI,0701JD,056,557,26-Jan-2007 7:41:46 AM,25-Jan-2007 11:41:46 PM,32.57882,-122.81118,083.3 090.0,083.3,090.0,443.000,446.612,5.9552,5.9555,34.1401,34.1388,34.1363,34.1364,0.78986,0.93,1.01,-9.990e-29,,,0.0000,0.00,-99,26.8836,26.8806,0.3977,90.5352,4.0599e+00,9.9990e+03,,,,,,,
CalCOFI,0701JD,056,557,26-Jan-2007 7:41:46 AM,25-Jan-2007 11:41:46 PM,32.57882,-122.81118,083.3 090.0,083.3,090.0,442.000,445.602,5.9741,5.9750,34.1391,34.1378,34.1370,34.1371,0.79201,0.93,1.01,-9.990e-29,,,0.0000,0.00,-99,26.8804,26.8787,0.3980,90.5291,4.1143e+00,9.9990e+03,,,,,,,
CalCOFI,0701JD,056,557,26-Jan-2007 7:41:47 AM,25-Jan-2007 11:41:47 PM,32.57882,-122.81118,083.3 090.0,083.3,090.0,441.000,444.593,5.9731,5.9737,34.1365,34.1352,34.1350,34.1351,0.80382,0.95,1.03,-9.990e-29,,,0.0000,0.00,-99,26.8785,26.8772,0.3973,90.5450,4.2671e+00,9.9990e+03,,,,,,,
CalCOFI,0701JD,056,557,26-Jan-2007 7:41:48 AM,25-Jan-2007 11:41:48 PM,32.57882,-122.81118,083.3 090.0,083.3,090.0,440.000,443.584,5.9643,5.9647,34.1328,34.1315,34.1316,34.1317,0.81870,0.96,1.04,-9.990e-29,,,0.0000,0.00,-99,26.8767,26.8756,0.3975,90.5400,4.3442e+00,9.9990e+03,,,,,,,
CalCOFI,0701JD,056,557,26-Jan-2007 7:41:49 AM,25-Jan-2007 11:41:49 PM,32.57882,-122.81118,083.3 090.0,083.3,090.0,439.000,442.575,5.9506,5.9506,34.1185,34.1172,34.1175,34.1176,0.83042,0.98,1.06,0.0243,,,0.0000,0.00,-99,26.8671,26.8662,0.3979,90.5304,4.2610e+00,9.9990e+03,,,,,,,
CalCOFI,0701JD,056,557,26-Jan-2007 7:41:52 AM,25-Jan-2007 11:41:52 PM,32.57882,-122.81118,083.3 090.0,083.3,090.0,438.000,441.565,5.9396,5.9384,34.1192,34.1179,34.1173,34.1174,0.82286,0.97,1.05,0.0242,,,0.0000,0.00,-99,26.8690,26.8676,0.3978,90.5343,4.2131e+00,9.9990e+03,438,5.91 ,34.114, 1.02,,,38.6
CalCOFI,0701JD,056,557,26-Jan-2007 7:42:13 AM,25-Jan-2007 11:42:13 PM,32.57882,-122.81118,083.3 090.0,083.3,090.0,437.000,440.556,5.9440,5.9458,34.1310,34.1297,34.1305,34.1306,0.81836,0.96,1.04,0.0243,,,0.0000,0.00,-99,26.8778,26.8771,0.3977,90.5355,4.4539e+00,9.9990e+03,,,,,,,
CalCOFI,0701JD,056,557,26-Jan-2007 7:43:33 AM,25-Jan-2007 11:43:33 PM,32.57882,-122.81118,083.3 090.0,083.3,090.0,436.000,439.547,5.9343,5.9325,34.1169,34.1156,34.1157,34.1158,0.88005,1.04,1.12,0.0239,,,0.0000,0.00,-99,26.8678,26.8671,0.3986,90.5236,4.1719e+00,9.9990e+03,,,,,,,
CalCOFI,0701JD,056,557,26-Jan-2007 7:44:48 AM,25-Jan-2007 11:44:48 PM,32.57882,-122.81118,083.3 090.0,083.3,090.0,435.000,438.538,5.9508,5.9457,34.1120,34.1107,34.1110,34.1111,0.91245,1.08,1.16,0.0242,,,0.0000,0.00,-99,26.8619,26.8617,-9.990e-29,90.5256,4.7739e+00,9.9990e+03,,,,,,,
CalCOFI,0701JD,056,557,26-Jan-2007 7:44:46 AM,25-Jan-2007 11:44:46 PM,32.57882,-122.81118,083.3 090.0,083.3,090.0,434.000,437.528,5.9646,5.9588,34.1155,34.1142,34.1129,34.1130,0.91048,1.08,1.15,0.0243,,,0.0000,0.00,-99,26.8629,26.8616,-9.990e-29,90.5256,4.7489e+00,9.9990e+03,,,,,,,
CalCOFI,0701JD,056,557,26-Jan-2007 7:44:47 AM,25-Jan-2007 11:44:47 PM,32.57882,-122.81118,083.3 090.0,083.3,090.0,433.000,436.519,5.9607,5.9592,34.1142,34.1129,34.1132,34.1133,0.91223,1.08,1.16,0.0239,,,0.0000,0.00,-99,26.8624,26.8617,-9.990e-29,90.5256,4.1866e+00,9.9990e+03,,,,,,,